Terminal Aerodrome Forecast
Issued by NWS

Home | Current Version | Previous Version | Text Only | Print | Product List | Glossary On
Versions: 1 2 3 4 5 6 7 8 9 10 11 12 13 14 15 16 17
000
FTUS41 KCAR 280422 AAB
TAFBHB
TAF AMD
KBHB 280422Z 2804/2824 21007KT 1 1/2SM BR OVC003
     FM280600 VRB02KT 2SM BR BKN010
     FM281200 VRB02KT P6SM BKN025
     FM281600 34008KT P6SM SCT050
      AMD NOT SKED=

USA.gov is the U.S. government's official web portal to all federal, state and local government web resources and services.